When you browse on this site, cookies collect data to enhance your experience and personalize the content and advertising you see.
Visit our Privacy Policy to learn more. By continuing to use the site, you agree to this use of cookies and data.
  • In Latvia
  • List of Countries
  • For 7 days
  • Water Temperature
  • Satellite Maps
  • Weather Map
  • Weather Widgets
  • user-avatar
    Login

    Hourly Weather Surinsk

    Today, 18 June, Tuesday

    Time Temperature Precipitation Wind Pressure Humidity
    00:00 +16°C° 0 mm 2 mps 751 mmHg 83%
    01:00 +16°C° 0 mm 2 mps 751 mmHg 82%
    02:00 +16°C° 0 mm 2 mps 751 mmHg 81%
    03:00 +16°C° 0 mm 2 mps 751 mmHg 80%
    04:00 +17°C° 0 mm 2 mps 751 mmHg 80%
    05:00 +18°C° 0 mm 2 mps 752 mmHg 80%
    06:00 +18°C° 0 mm 2 mps 752 mmHg 80%
    07:00 +20°C° 0.1 mm 2 mps 752 mmHg 74%
    08:00 +21°C° 0.1 mm 2 mps 752 mmHg 68%
    09:00 +24°C° 0.1 mm 2 mps 752 mmHg 63%
    10:00 +24°C° 0.5 mm 2 mps 751 mmHg 62%
    11:00 +24°C° 0.5 mm 2 mps 751 mmHg 62%
    12:00 +25°C° 0.5 mm 2 mps 751 mmHg 61%
    13:00 +25°C° 0.8 mm 2 mps 751 mmHg 62%
    14:00 +25°C° 0.8 mm 3 mps 750 mmHg 64%
    15:00 +25°C° 0.8 mm 3 mps 750 mmHg 65%
    16:00 +25°C° 0.4 mm 3 mps 750 mmHg 69%
    17:00 +24°C° 0.4 mm 3 mps 750 mmHg 74%
    18:00 +24°C° 0.4 mm 2 mps 750 mmHg 78%
    19:00 +21°C° 0.4 mm 2 mps 750 mmHg 81%
    20:00 +19°C° 0.4 mm 2 mps 750 mmHg 85%
    21:00 +18°C° 0.4 mm 2 mps 750 mmHg 88%
    22:00 +17°C° 0 mm 2 mps 750 mmHg 90%
    23:00 +17°C° 0 mm 2 mps 750 mmHg 91%

    Tomorrow, 19 June, Wednesday

    Time Temperature Precipitation Wind Pressure Humidity
    00:00 +17°C° 0 mm 2 mps 750 mmHg 92%
    01:00 +16°C° 0 mm 2 mps 750 mmHg 92%
    02:00 +16°C° 0 mm 2 mps 750 mmHg 92%
    03:00 +16°C° 0 mm 2 mps 750 mmHg 92%
    04:00 +17°C° 0 mm 2 mps 750 mmHg 90%
    05:00 +18°C° 0 mm 2 mps 750 mmHg 87%
    06:00 +19°C° 0 mm 2 mps 750 mmHg 85%
    07:00 +20°C° 0.2 mm 3 mps 750 mmHg 80%
    08:00 +21°C° 0.2 mm 3 mps 750 mmHg 75%
    09:00 +24°C° 0.2 mm 3 mps 750 mmHg 69%
    10:00 +25°C° 0.2 mm 3 mps 750 mmHg 65%
    11:00 +25°C° 0.2 mm 3 mps 750 mmHg 61%
    12:00 +26°C° 0.2 mm 3 mps 750 mmHg 56%
    13:00 +26°C° 0.1 mm 3 mps 750 mmHg 57%
    14:00 +26°C° 0.1 mm 3 mps 750 mmHg 58%
    15:00 +26°C° 0.1 mm 3 mps 750 mmHg 58%
    16:00 +26°C° 0.1 mm 3 mps 750 mmHg 63%
    17:00 +25°C° 0.1 mm 3 mps 750 mmHg 68%
    18:00 +25°C° 0.1 mm 3 mps 750 mmHg 72%
    19:00 +22°C° 0 mm 3 mps 751 mmHg 77%
    20:00 +20°C° 0 mm 3 mps 751 mmHg 82%
    21:00 +18°C° 0 mm 2 mps 751 mmHg 88%
    22:00 +18°C° 0 mm 2 mps 751 mmHg 89%
    23:00 +17°C° 0 mm 3 mps 751 mmHg 90%

    Day after tomorrow, 20 June, Thursday

    Time Temperature Precipitation Wind Pressure Humidity
    00:00 +17°C° 0 mm 3 mps 752 mmHg 91%
    01:00 +17°C° 0 mm 3 mps 752 mmHg 92%
    02:00 +16°C° 0 mm 2 mps 752 mmHg 92%
    03:00 +16°C° 0 mm 2 mps 752 mmHg 93%
    04:00 +17°C° 0 mm 2 mps 753 mmHg 90%
    05:00 +18°C° 0 mm 2 mps 753 mmHg 87%
    06:00 +19°C° 0 mm 2 mps 753 mmHg 84%
    07:00 +21°C° 0 mm 2 mps 753 mmHg 77%
    08:00 +23°C° 0 mm 2 mps 753 mmHg 71%
    09:00 +25°C° 0 mm 2 mps 754 mmHg 64%
    10:00 +26°C° 0 mm 2 mps 754 mmHg 60%
    11:00 +27°C° 0 mm 3 mps 754 mmHg 57%
    12:00 +28°C° 0 mm 3 mps 754 mmHg 53%
    13:00 +28°C° 0 mm 3 mps 754 mmHg 53%
    14:00 +28°C° 0 mm 3 mps 754 mmHg 54%
    15:00 +28°C° 0 mm 3 mps 754 mmHg 54%
    16:00 +27°C° 0.1 mm 3 mps 754 mmHg 59%
    17:00 +27°C° 0.1 mm 2 mps 754 mmHg 63%
    18:00 +26°C° 0.1 mm 2 mps 754 mmHg 68%
    19:00 +24°C° 0 mm 2 mps 754 mmHg 71%
    20:00 +23°C° 0 mm 2 mps 754 mmHg 75%
    21:00 +20°C° 0 mm 2 mps 755 mmHg 78%
    22:00 +19°C° 0 mm 2 mps 755 mmHg 80%
    23:00 +19°C° 0 mm 2 mps 755 mmHg 82%

    21 June, Friday

    Time Temperature Precipitation Wind Pressure Humidity
    00:00 +18°C° 0 mm 2 mps 755 mmHg 83%
    01:00 +18°C° 0 mm 2 mps 755 mmHg 84%
    02:00 +17°C° 0 mm 2 mps 755 mmHg 84%
    03:00 +17°C° 0 mm 2 mps 756 mmHg 85%
    04:00 +18°C° 0 mm 2 mps 756 mmHg 83%
    05:00 +19°C° 0 mm 2 mps 756 mmHg 81%
    06:00 +20°C° 0 mm 2 mps 756 mmHg 79%
    07:00 +23°C° 0 mm 2 mps 756 mmHg 73%
    08:00 +24°C° 0 mm 2 mps 756 mmHg 68%
    09:00 +26°C° 0 mm 2 mps 756 mmHg 62%
    10:00 +26°C° 0 mm 2 mps 757 mmHg 58%
    11:00 +27°C° 0 mm 2 mps 757 mmHg 54%
    12:00 +28°C° 0 mm 2 mps 757 mmHg 50%
    13:00 +28°C° 0 mm 2 mps 757 mmHg 49%
    14:00 +28°C° 0 mm 2 mps 756 mmHg 49%
    15:00 +28°C° 0 mm 2 mps 756 mmHg 48%
    16:00 +28°C° 0 mm 2 mps 756 mmHg 54%
    17:00 +27°C° 0 mm 2 mps 756 mmHg 59%
    18:00 +27°C° 0 mm 2 mps 756 mmHg 65%
    19:00 +25°C° 0 mm 1 mps 756 mmHg 70%
    20:00 +23°C° 0 mm 1 mps 756 mmHg 74%
    21:00 +19°C° 0 mm 0 mps 757 mmHg 79%
    22:00 +18°C° 0 mm 0 mps 757 mmHg 80%
    23:00 +18°C° 0 mm 0 mps 757 mmHg 81%

    22 June, Saturday

    Time Temperature Precipitation Wind Pressure Humidity
    00:00 +18°C° 0 mm 0 mps 757 mmHg 82%
    01:00 +17°C° 0 mm 0 mps 757 mmHg 83%
    02:00 +17°C° 0 mm 0 mps 757 mmHg 83%
    03:00 +19°C° 0 mm 1 mps 757 mmHg 84%
    04:00 +20°C° 0 mm 1 mps 758 mmHg 81%
    05:00 +19°C° 0 mm 0 mps 758 mmHg 78%
    06:00 +20°C° 0 mm 0 mps 758 mmHg 75%
    07:00 +22°C° 0 mm 0 mps 758 mmHg 70%
    08:00 +23°C° 0 mm 0 mps 758 mmHg 65%
    09:00 +25°C° 0 mm 0 mps 758 mmHg 60%
    10:00 +25°C° 0 mm 0 mps 758 mmHg 55%
    11:00 +28°C° 0 mm 1 mps 758 mmHg 51%
    12:00 +29°C° 0 mm 1 mps 757 mmHg 47%
    13:00 +29°C° 0 mm 1 mps 757 mmHg 46%
    14:00 +29°C° 0 mm 1 mps 757 mmHg 45%
    15:00 +29°C° 0 mm 1 mps 757 mmHg 43%
    16:00 +29°C° 0 mm 1 mps 757 mmHg 48%
    17:00 +28°C° 0 mm 1 mps 757 mmHg 53%
    18:00 +28°C° 0 mm 1 mps 756 mmHg 58%
    19:00 +26°C° 0 mm 1 mps 757 mmHg 61%
    20:00 +24°C° 0 mm 1 mps 757 mmHg 64%
    21:00 +20°C° 0 mm 0 mps 757 mmHg 67%
    22:00 +19°C° 0 mm 0 mps 757 mmHg 69%
    23:00 +19°C° 0 mm 0 mps 757 mmHg 70%

    23 June, Sunday

    Time Temperature Precipitation Wind Pressure Humidity
    00:00 +18°C° 0 mm 0 mps 757 mmHg 72%
    01:00 +18°C° 0 mm 0 mps 757 mmHg 73%
    02:00 +18°C° 0 mm 0 mps 757 mmHg 74%
    03:00 +17°C° 0 mm 0 mps 757 mmHg 75%
    04:00 +19°C° 0 mm 0 mps 757 mmHg 74%
    05:00 +20°C° 0 mm 0 mps 757 mmHg 72%
    06:00 +21°C° 0 mm 0 mps 757 mmHg 70%
    07:00 +25°C° 0 mm 1 mps 757 mmHg 65%
    08:00 +26°C° 0 mm 1 mps 757 mmHg 60%
    09:00 +28°C° 0 mm 1 mps 757 mmHg 56%
    10:00 +28°C° 0 mm 1 mps 757 mmHg 52%
    11:00 +29°C° 0 mm 1 mps 757 mmHg 48%
    12:00 +30°C° 0 mm 1 mps 757 mmHg 45%
    13:00 +30°C° 0 mm 1 mps 757 mmHg 45%
    14:00 +30°C° 0 mm 1 mps 756 mmHg 44%
    15:00 +31°C° 0 mm 2 mps 756 mmHg 44%
    16:00 +30°C° 0 mm 1 mps 756 mmHg 49%
    17:00 +30°C° 0 mm 1 mps 756 mmHg 54%
    18:00 +29°C° 0 mm 1 mps 756 mmHg 59%
    19:00 +27°C° 0 mm 1 mps 756 mmHg 63%
    20:00 +23°C° 0 mm 0 mps 756 mmHg 66%
    21:00 +21°C° 0 mm 0 mps 756 mmHg 69%
    22:00 +21°C° 0 mm 0 mps 756 mmHg 71%
    23:00 +20°C° 0 mm 0 mps 756 mmHg 72%
    Show more